Location: Lango�lan
(48.1202°N, 3.2340°W)
Time: 19:11:18
(UTC+00:00)

Daily predictions for brighter satellites

Satellite Brightness Start Highest point End
(mag) Time Altitude Azimuth Time Altitude Azimuth Time Altitude Azimuth
Cosmos 2184 Rocket 4.3 18:25:42 10° SSW 18:31:52 75° W 18:38:08 10° N
CENTAUR R/B 4.0 18:31:19 10° SE 18:33:47 13° ESE 18:36:23 10° ENE
ATLAS CENTAUR R/B 1.4 18:31:01 10° SW 18:34:39 68° NW 18:38:21 10° NE
Meteor 2-12 Rocket 4.4 18:30:41 10° S 18:36:42 72° E 18:42:48 10° NNE
USA 308 3.7 18:37:54 10° WNW 18:41:58 40° N 18:46:01 10° E
Cosmos 1666 3.2 18:38:34 10° SSE 18:41:58 35° E 18:45:25 10° NNE
Cosmos 1703 Rocket 3.6 18:38:36 10° N 18:42:56 56° ENE 18:47:12 10° SSE
Cosmos 2322 4.0 18:39:17 10° S 18:44:45 48° ESE 18:50:13 10° NE
CZ-2C R/B 3.9 18:39:25 10° S 18:44:59 60° W 18:50:19 10° NNW
CSL-04 Rocket 4.0 18:40:41 10° SE 18:45:58 49° ENE 18:51:13 10° N
Cosmos 1844 Rocket 3.1 18:41:00 10° NNW 18:46:33 68° WSW 18:52:03 10° SSE
BREEZE-M DEB (TANK) 4.5 18:47:02 10° S 18:48:34 15° SE 18:50:06 11° ESE
Okean-O 2.6 18:44:36 10° SSE 18:49:00 75° ENE 18:53:27 10° N
Cosmos 1933 Rocket 3.5 18:46:08 10° S 18:50:30 78° E 18:54:56 10° NNE
Cosmos 1777 Rocket 4.0 18:45:58 10° NNW 18:51:12 66° ENE 18:56:23 10° SSE
Cosmos 2366 rocket 4.5 18:46:12 10° SSE 18:51:59 39° E 18:57:49 10° NNE
H-2A R/B 2.3 18:47:37 10° SSE 18:53:05 88° WSW 18:58:33 10° NNW
CSL-04 Debris 4.3 18:48:13 10° SSE 18:53:33 59° ENE 18:58:56 10° N
SJ-6B 4.2 18:53:07 10° ESE 18:56:09 21° ENE 18:59:09 10° NNE
Ariane Rocket 4.1 18:55:54 10° ESE 18:59:54 24° ENE 19:03:54 10° N
USA 186 2.9 18:59:36 15° E 19:00:21 17° ENE 19:02:10 10° NNE
Cosmos 1500 3.7 18:57:47 10° SSW 19:01:29 64° WNW 19:05:13 10° N
OBJECT-B 2.5 19:02:09 14° E 19:03:02 16° ENE 19:05:04 10° NNE
Meteor 1-11 Rocket 4.0 19:00:25 10° SSE 19:05:46 46° E 19:11:04 10° NNE
SJ-11-01 4.5 19:01:16 10° S 19:05:58 77° WSW 19:10:42 10° NNW
Okean 1-7 3.0 19:02:43 10° N 19:07:06 88° W 19:11:25 10° S
PSLV R/B 3.8 19:03:59 10° NNE 19:08:05 85° ESE 19:12:08 10° SSW
Cosmos 2360 Rocket 2.8 19:03:25 10° SW 19:09:00 62° WNW 19:14:40 10° NNE
YAOGAN 1 3.1 19:05:39 10° S 19:09:56 64° WSW 19:14:16 10° NNW
FALCON 9 DEB 2.9 19:08:30 10° WNW 19:11:42 75° NNE 19:13:45 20° ESE
SAR-Lupe-4 3.5 19:08:53 10° NNE 19:12:29 70° ESE 19:16:03 10° S
Cosmos 1943 Rocket 4.1 19:09:48 10° N 19:12:40 14° NNE 19:15:25 10° ENE
Meteor 1-13 Rocket 4.3 19:08:24 10° N 19:14:22 75° ENE 19:20:10 10° SSE
Cosmos 2341 Rocket 4.0 19:09:12 10° S 19:15:30 87° E 19:21:47 10° N
Cosmos 2333 4.2 19:09:57 10° SSW 19:15:38 88° ESE 19:21:24 10° NNE
SJ 16-02 1.7 19:11:28 10° N 19:15:42 43° ENE 19:19:19 13° SE
Cosmos 1727 Rocket 4.2 19:10:22 10° N 19:16:19 47° ENE 19:22:17 10° SSE
Cosmos 2237 Rocket 3.2 19:12:12 10° SSE 19:16:32 23° E 19:20:52 10° NE
Cosmos 2278 Rocket 2.5 19:12:11 10° NNW 19:17:40 47° NE 19:22:11 15° SE
DMSP B5D2-2 4.4 19:13:00 10° NNE 19:17:58 42° E 19:22:53 10° SSE
Cosmos 1544 4.2 19:15:07 10° SE 19:18:02 23° E 19:20:57 10° NE
FALCON 9 DEB 2.8 19:16:23 10° WNW 19:19:35 88° SSW 19:21:22 24° ESE
SL-4 R/B 2.7 19:16:52 10° WNW 19:20:11 38° SW 19:22:57 13° SSE
Cosmos 1536 3.0 19:16:29 10° SSE 19:20:18 46° E 19:24:08 10° NNE
Okean 3 3.4 19:16:03 10° N 19:20:19 65° ENE 19:24:35 10° SSE
Meteor 1-5 Rocket 4.3 19:17:35 10° SSW 19:23:00 78° WNW 19:28:39 10° N
SeaSat 1 2.7 19:20:28 10° NE 19:25:12 44° ESE 19:29:54 10° S
Abrixas rocket 2.6 19:23:32 10° W 19:25:51 35° SSW 19:26:46 25° SSE
Cosmos 2218 Rocket 4.0 19:19:49 10° S 19:26:10 71° E 19:32:31 10° NNE
Cosmos 864 Rocket 4.4 19:23:59 10° S 19:30:06 70° E 19:36:20 10° NNE
MetOp-A 4.1 19:25:09 10° SSE 19:30:25 62° ENE 19:35:43 10° N
Resurs 01 Rocket 3.1 19:31:41 19° ENE 19:31:58 19° ENE 19:35:07 10° NNE
SME Rocket 4.2 19:25:38 10° NNE 19:32:28 43° E 19:37:07 10° SSE
SAR-Lupe-1 4.5 19:29:19 10° N 19:32:54 64° WNW 19:36:27 10° SSW
Gbstr 26 Del rocket 3.4 19:30:32 10° WNW 19:35:07 72° NNE 19:38:18 25° E
Cosmos 1959 Rocket 4.4 19:29:14 10° S 19:35:19 79° E 19:41:28 10° N
Helios 1A Rocket 3.6 19:31:45 10° S 19:35:44 56° W 19:39:42 10° NNW
Cosmos 2333 Rocket 2.3 19:30:53 10° SSW 19:36:35 81° WNW 19:42:22 10° NNE
USA 234 4.0 19:33:09 19° E 19:36:43 30° SE 19:42:20 10° S
Lacrosse 4 Rocket 1.8 19:33:48 10° SW 19:38:12 69° NW 19:42:42 10° NNE
Cosmos 1937 Rocket 4.4 19:33:56 10° N 19:38:24 28° NE 19:39:49 25° E
GP-B 3.9 19:34:59 10° SSW 19:39:19 54° W 19:43:42 10° N
ERBS 4.4 19:38:35 10° NW 19:40:55 17° N 19:42:16 14° NNE
USA 238 DEB 3.8 19:36:28 10° SSW 19:42:42 49° ESE 19:49:13 10° NE
USA 238 3.8 19:36:35 10° SSW 19:42:48 48° ESE 19:49:19 10° NE
Cosmos 2322 Rocket 4.4 19:38:38 10° W 19:43:13 25° NW 19:47:49 10° N
ARGOS 4.2 19:39:58 10° S 19:45:11 48° W 19:50:27 10° NNW
CZ-4 R/B 4.0 19:42:21 10° SW 19:45:24 22° W 19:48:32 10° NW
Cosmos 1869 Rocket 3.9 19:41:32 10° SSW 19:45:52 67° W 19:50:18 10° N
Resurs 1-3 4.1 19:45:27 33° ESE 19:46:32 38° ENE 19:50:38 10° N
Cosmos 1689 Rocket 4.2 19:45:04 10° N 19:47:37 28° WNW 19:50:09 10° SW
FALCON 9 DEB 3.5 19:45:06 10° WNW 19:48:10 51° SW 19:48:55 39° SSE
ERS-2 3.5 19:45:16 10° N 19:48:44 41° WNW 19:52:11 10° SW
IRS-1A Rocket 4.2 19:46:16 16° SSE 19:50:42 63° ENE 19:56:10 10° N
Cosmos 2219 Rocket 2.5 19:47:15 10° SW 19:52:49 70° WNW 19:58:27 10° NNE
Cosmos 1378 3.5 19:49:50 10° NNW 19:53:32 65° W 19:57:12 10° S
CREW DRAGON DEMO-1 DEB 2.8 19:52:43 10° WSW 19:55:13 66° SW 19:55:13 66° SW
Cosmos 1238 Rocket 2.5 19:51:41 10° S 19:55:45 90° ENE 19:59:10 10° N
CZ-2C R/B 3.1 19:50:38 10° N 19:56:02 65° WNW 20:01:17 10° SSW
USA 305 2.8 19:53:24 10° WNW 19:57:42 74° NNE 19:58:46 48° E
FALCON 9 DEB 3.4 19:54:38 10° WNW 19:57:45 51° SSW 19:58:05 48° S
Cosmos 1980 3.8 19:55:30 10° S 20:00:55 51° ESE 20:06:24 10° NE
Cosmos 1733 Rocket 2.9 19:58:46 10° S 20:03:03 63° E 20:07:23 10° NNE
COSMOS 2428 3.1 20:02:16 10° SW 20:07:53 65° WNW 20:13:36 10° NNE
NOSS 3-2 (A) 3.2 20:05:46 10° SW 20:11:24 82° SE 20:17:58 10° NE
USA 307 2.7 20:07:11 10° WNW 20:11:30 83° NNE 20:12:00 68° E
USA 306 2.7 20:08:25 10° WNW 20:12:44 87° NNE 20:13:13 70° ESE
ATLAS CENTAUR R/B 4.0 20:12:17 10° WNW 20:14:14 14° NNW 20:16:13 10° N
Cosmos 1743 2.7 20:11:48 10° S 20:15:40 83° W 20:19:35 10° N
Cosmos 2369 Rocket 3.7 20:13:39 10° N 20:17:43 20° NE 20:18:00 20° NE
Cosmos 1898 Rocket 3.4 20:12:59 10° NNW 20:18:15 74° ENE 20:19:30 52° SE
NOSS 0 Rocket 3.8 20:15:04 10° SSW 20:21:13 85° ESE 20:27:25 10° NNE
USA 308 2.7 20:18:00 10° WNW 20:22:18 87° SW 20:22:24 85° SSE
CENTAUR R/B 2.4 20:16:58 10° SSW 20:22:49 69° SE 20:29:50 10° NE
SJ-6B 4.0 20:28:21 22° SSW 20:30:32 42° W 20:34:22 10° NNW
ASTEX 1 4.0 20:25:57 10° N 20:30:43 55° WNW 20:35:28 10° SSW
USA 186 4.2 20:31:10 16° W 20:31:10 16° W 20:32:52 10° NW
Cosmos 1674 Rocket 3.5 20:27:58 10° NNW 20:32:18 80° W 20:32:24 79° WSW
Landsat 7 4.5 20:34:35 42° NNE 20:34:35 42° NNE 20:38:11 10° N
OBJECT-B 2.4 20:35:13 33° W 20:35:13 33° W 20:38:00 10° NNW
ARIANE 5 R/B 4.4 20:39:17 22° NNE 20:39:17 22° NNE 20:41:19 10° N
Cosmos 990 Rocket 4.2 20:33:18 10° NNW 20:38:27 66° WSW 20:39:46 47° SSW
Ariane Rocket 3.6 20:35:45 26° S 20:38:31 56° W 20:43:32 10° NNW
Cosmos 1763 Rocket 3.4 20:37:35 10° SSW 20:42:55 87° ESE 20:48:16 10° NNE
Cosmos 2297 3.8 20:39:07 10° NNW 20:44:36 58° NE 20:44:36 58° NE
MetOp-B 4.2 20:45:40 62° NE 20:45:40 62° NE 20:50:32 10° N
Cosmos 1378 Rocket 3.9 20:42:17 10° NNW 20:46:26 66° WNW 20:46:26 66° WNW
NOSS 3-2 (C) 3.3 20:47:32 10° SW 20:53:13 88° NW 20:55:56 37° NE
SJ 16-02 3.6 20:50:35 10° NW 20:54:00 22° W 20:56:21 15° SW
Cosmos 468 Rocket 4.1 20:49:27 10° SSW 20:54:46 73° WNW 21:00:04 10° NNE
Cosmos 1943 Rocket 2.7 20:52:18 10° NNW 20:56:58 47° NNE 20:56:58 47° NNE
Cosmos 2237 Rocket 2.5 20:54:25 10° SW 21:00:05 65° WNW 21:05:48 10° NNE
Cosmos 1535 Rocket 4.4 21:00:59 80° SE 21:01:17 82° E 21:07:40 10° N
Cosmos 2278 Rocket 3.6 20:56:34 10° NW 21:01:35 33° WSW 21:04:05 23° SSW
SeaSat 1 4.0 20:58:11 10° NNE 21:02:36 34° NW 21:07:02 10° WSW
SPOT 3 Rocket 3.8 21:05:03 64° WSW 21:05:03 64° WSW 21:10:16 10° NNW
Meteor 1-21 4.3 20:59:31 10° NNW 21:05:15 74° W 21:05:27 73° WSW
Resurs 01 Rocket 2.8 21:09:15 41° NW 21:09:15 41° NW 21:12:26 10° NNW
USA 245 4.5 21:12:27 71° N 21:12:27 71° N 21:18:07 10° NNW
SPOT 1/Viking Rocket 4.3 21:14:33 45° N 21:14:33 45° N 21:18:07 10° NNW
Cosmos 1934 Rocket 4.0 21:14:32 71° WSW 21:14:58 75° W 21:21:09 10° N
Lacrosse 4 Rocket 4.4 21:15:07 10° WNW 21:17:45 15° NW 21:20:24 10° N
USA 234 3.1 21:20:31 84° SW 21:20:31 84° SW 21:26:49 10° WSW
Cosmos 1937 Rocket 4.4 21:15:38 10° NNW 21:20:01 45° W 21:20:01 45° W
Cosmos 2123 Rocket 4.4 21:18:58 10° NNW 21:25:03 56° W 21:25:45 53° WSW
USA 238 DEB 4.4 21:27:17 10° WSW 21:33:41 49° NW 21:40:27 10° NE
USA 238 4.4 21:27:23 10° WSW 21:33:47 49° NW 21:40:33 10° NE
Terra 4.1 21:39:46 18° N 21:39:46 18° N 21:40:59 10° N
Cosmos 2369 Rocket 3.7 21:56:56 10° NNW 21:59:48 31° NNW 21:59:48 31° NNW
CENTAUR R/B 3.8 22:08:10 10° W 22:14:03 39° NNW 22:21:00 10° NE
USA 281 4.5 22:40:59 35° NNW 22:40:59 35° NNW 22:44:34 10° NNW
Cosmos 1943 Rocket 4.4 22:36:30 10° NW 22:38:29 19° WNW 22:38:29 19° WNW
